Location: Isola Pescaroli
(45.0500°N, 10.1667°E)
Time: 08:58:43
(UTC+00:00)

Cosmos 1777 Rocket - Pass Details

Date: 03 March 2021
Orbit: 759 x 775 km, 74.0° (Epoch: 19 April)

Event Time Altitude Azimuth Distance (km) Brightness Sun altitude
Rises 18:28:16 0° 344° (NNW) 3,248 7.5 -14.7°
Reaches altitude 10° 18:30:48 10° 352° (N) 2,315 6.7 -15.1°
Maximum altitude 18:35:44 40° 62° (ENE) 1,123 4.5 -16.0°
Enters shadow 18:38:02 26° 112° (ESE) 1,464 4.9 -16.4°
